| time (UTC) | temp F | wind direction | speed MPH | gust MPH | rain 1hr in | rain 24hr in | rain mn in | humidity % | barometer mb |
| 20260504081559 | 47 | 190 | 3.0 | 9.0 | 0.00 | 0.00 | 0.00 | 58 | 1009.6 |
| 20260504050002 | 41 | 296 | 2.0 | 3.0 | 0.00 | 0.00 | 0.00 | 27 | 1009.9 |
| 20260504044604 | 40 | 296 | 0.0 | 3.0 | 0.00 | 0.00 | 0.00 | 28 | 1010.0 |
| 20260504043055 | 40 | 296 | 0.0 | 3.0 | 0.00 | 0.00 | 0.00 | 24 | 1010.0 |
| 20260504041550 | 40 | 296 | 1.0 | 3.0 | 0.00 | 0.00 | 0.00 | 28 | 1010.1 |
| 20260504040045 | 39 | 296 | 1.0 | 3.0 | 0.00 | 0.00 | 0.00 | 21 | 1009.9 |
| 20260504034542 | 38 | 296 | 0.0 | 2.0 | 0.00 | 0.00 | 0.00 | 11 | 1009.9 |
| 20260504033035 | 37 | 296 | 1.0 | 3.0 | 0.00 | 0.00 | 0.00 | 12 | 1009.9 |
| 20260504031530 | 37 | 296 | 2.0 | 3.0 | 0.00 | 0.00 | 0.00 | 21 | 1009.8 |
| 20260504030037 | 38 | 296 | 1.0 | 3.0 | 0.00 | 0.00 | 0.00 | 27 | 1009.7 |
| 20260504024523 | 38 | 296 | 2.0 | 3.0 | 0.00 | 0.00 | 0.00 | 31 | 1009.6 |
| 20260504023018 | 39 | 296 | 2.0 | 3.0 | 0.00 | 0.00 | 0.00 | 41 | 1009.7 |
| 20260504021514 | 39 | 296 | 1.0 | 3.0 | 0.00 | 0.00 | 0.00 | 45 | 1009.8 |
| 20260504020015 | 40 | 296 | 0.0 | 2.0 | 0.00 | 0.00 | 0.00 | 54 | 1009.9 |
| 20260504014507 | 41 | 296 | 1.0 | 2.0 | 0.00 | 0.00 | 0.00 | 61 | 1009.8 |
| 20260504013009 | 42 | 296 | 0.0 | 2.0 | 0.00 | 0.00 | 0.00 | 62 | 1009.7 |
| 20260504011506 | 43 | 296 | 1.0 | 2.0 | 0.00 | 0.00 | 0.00 | 63 | 1009.5 |
| 20260504010005 | 45 | 296 | 1.0 | 2.0 | 0.00 | 0.00 | 0.00 | 60 | 1009.2 |
| 20260504004506 | 47 | 296 | 0.0 | 3.0 | 0.00 | 0.00 | 0.00 | 53 | 1009.1 |
| 20260504003004 | 49 | 296 | 0.0 | 3.0 | 0.00 | 0.00 | 0.00 | 46 | 1008.9 |
| 20260504001504 | 50 | 296 | 1.0 | 4.0 | 0.00 | 0.00 | 0.00 | 47 | 1008.8 |
| 20260504000003 | 50 | 296 | 0.0 | 2.0 | 0.00 | 0.00 | 0.00 | 41 | 1008.6 |
| 20260503234504 | 51 | 296 | 0.0 | 3.0 | 0.00 | 0.00 | 0.00 | 40 | 1008.4 |
| 20260503233003 | 52 | 296 | 1.0 | 5.0 | 0.00 | 0.00 | 0.00 | 39 | 1008.2 |
| 20260503231501 | 52 | 292 | 0.0 | 5.0 | 0.00 | 0.00 | 0.00 | 37 | 1008.2 |
| 20260503230101 | 53 | 298 | 0.0 | 4.0 | 0.00 | 0.00 | 0.00 | 36 | 1008.0 |
| 20260503224556 | 53 | 269 | 1.0 | 5.0 | 0.00 | 0.00 | 0.00 | 33 | 1007.9 |
| 20260503223052 | 54 | 317 | 2.0 | 12.0 | 0.00 | 0.00 | 0.00 | 32 | 1007.8 |
| 20260503221546 | 56 | 284 | 2.0 | 8.0 | 0.00 | 0.00 | 0.00 | 32 | 1007.8 |
| 20260503220049 | 55 | 338 | 5.0 | 13.0 | 0.00 | 0.00 | 0.00 | 31 | 1007.8 |
| 20260503214538 | 55 | 259 | 6.0 | 14.0 | 0.00 | 0.00 | 0.00 | 31 | 1007.8 |
| 20260503213034 | 55 | 275 | 5.0 | 11.0 | 0.00 | 0.00 | 0.00 | 33 | 1007.8 |
| 20260503211528 | 55 | 296 | 2.0 | 15.0 | 0.00 | 0.00 | 0.00 | 36 | 1007.6 |
| 20260503210024 | 54 | 265 | 4.0 | 14.0 | 0.00 | 0.00 | 0.00 | 37 | 1007.6 |
| 20260503204520 | 52 | 246 | 3.0 | 13.0 | 0.00 | 0.00 | 0.00 | 38 | 1007.7 |
| 20260503203027 | 53 | 9 | 3.0 | 14.0 | 0.00 | 0.00 | 0.00 | 39 | 1007.9 |
| 20260503201518 | 54 | 302 | 6.0 | 12.0 | 0.00 | 0.00 | 0.00 | 39 | 1007.9 |
| 20260503200011 | 53 | 22 | 2.0 | 18.0 | 0.00 | 0.00 | 0.00 | 43 | 1008.1 |
| 20260503194507 | 53 | 249 | 5.0 | 11.0 | 0.00 | 0.00 | 0.00 | 42 | 1008.3 |
| 20260503193003 | 52 | 259 | 4.0 | 13.0 | 0.00 | 0.00 | 0.00 | 41 | 1008.6 |
| 20260503191605 | 51 | 336 | 6.0 | 16.0 | 0.00 | 0.00 | 0.00 | 45 | 1008.7 |
| 20260503190055 | 50 | 250 | 4.0 | 15.0 | 0.00 | 0.00 | 0.00 | 44 | 1008.9 |
| 20260503184603 | 50 | 291 | 4.0 | 16.0 | 0.00 | 0.00 | 0.00 | 45 | 1009.0 |
| 20260503183056 | 49 | 234 | 5.0 | 17.0 | 0.00 | 0.00 | 0.00 | 43 | 1009.1 |
| 20260503181540 | 49 | 336 | 5.0 | 17.0 | 0.00 | 0.00 | 0.00 | 44 | 1009.2 |
| 20260503180037 | 49 | 317 | 1.0 | 13.0 | 0.00 | 0.00 | 0.00 | 47 | 1009.1 |
| 20260503174532 | 48 | 263 | 8.0 | 18.0 | 0.00 | 0.00 | 0.00 | 43 | 1009.1 |
| 20260503173028 | 47 | 266 | 5.0 | 13.0 | 0.00 | 0.00 | 0.00 | 44 | 1009.1 |
| 20260503171523 | 48 | 315 | 5.0 | 15.0 | 0.00 | 0.00 | 0.00 | 45 | 1009.1 |